[[{"header":{"parameterUnit":"m.s-1","parameterCategory":1,"la1":30.2991,"la2":30.254,"lo1":-89.0895,"lo2":-89.0444,"dy":0.0017,"dx":0.0017,"nx":28,"ny":28,"refTime":"2025-06-19T09:00:00:Z","depth":0,"parameterNumber":2,"parameterNumberName":"U-component_of_WINDS"},"data":[0,0,0,0,0,0,0,0,0,0,0,0,0,0,0,0,0,0,0,0,0,0,0,0,0,0,0,0,0,0,0,0,0,0,0,0,0,0,0,0,0,0,0,0,0,0,0,0,0,0,0,0,0,0,0,0,0,0,1.2094,1.2093,0,1.2071,1.207,1.207,1.1997,1.1995,1.1993,1.1992,1.1969,1.197,1.1971,0,0,0,0,0,0,0,0,0,0,0,0,0,1.2072,1.2073,1.2094,1.2093,1.2093,1.2071,1.207,1.207,1.1997,1.1995,1.1993,1.1991,1.1969,1.197,1.1971,0,0,0,0,0,0,0,0,0,0,0,0,0,1.2069,1.2073,1.2094,1.2054,1.205,1.2071,1.207,1.207,1.1997,1.1995,1.1992,1.199,1.1969,1.197,1.1971,1.2029,0,0,1.1976,1.1976,0,0,0,0,0,0,0,0,1.2069,1.207,1.206,1.2057,1.2052,1.2034,1.2055,1.2056,1.1998,1.2017,1.1992,1.1989,1.1993,1.1992,1.1993,1.2028,1.2027,1.1976,1.1977,1.1977,1.1978,0,0,0,0,0,0,0,1.2069,1.207,1.2085,1.206,1.2055,1.2036,1.2033,1.2055,1.2019,1.2015,1.201,1.2008,1.199,1.1992,1.1992,1.2027,1.1976,1.1977,1.1978,1.1978,1.2103,1.2106,0,0,0,0,0,0,1.2075,1.2071,1.2085,1.2084,1.2055,1.2039,1.2035,1.2042,1.2019,1.2013,1.201,1.2005,1.1991,1.1991,1.1991,1.2054,1.1977,1.1978,1.1979,1.2101,1.2104,1.2107,0,0,0,0,0,0,1.2075,1.2077,1.2086,1.2076,1.2076,1.2042,1.205,1.2043,1.2045,1.2015,1.2008,1.2019,1.1989,1.1989,1.2019,1.2052,1.1979,1.198,1.2098,1.2102,1.2105,1.2182,0,0,0,0,0,0,1.2075,1.2078,1.21,1.2077,1.2076,1.2115,1.2053,1.2045,1.2047,1.204,1.2021,1.2015,1.1987,1.2017,1.2021,1.2053,1.1981,1.2095,1.21,1.2104,1.2176,1.2188,1.2198,0,0,0,0,0,1.2074,1.2124,1.2102,1.2104,1.2104,1.2118,1.2117,1.2083,1.205,1.2072,1.2052,1.2016,1.2048,1.2021,1.2024,1.2057,1.2093,1.2098,1.2104,1.2171,1.2185,1.2197,0,0,0,0,0,0,1.2153,1.212,1.2095,1.2139,1.2131,1.2105,1.2131,1.21,1.2102,1.2095,1.2053,1.2049,1.2084,1.2074,1.2044,1.2109,1.2064,1.2071,1.2115,1.2128,1.2138,1.2139,1.1983,0,0,0,0,0,1.2175,1.2189,1.216,1.2201,1.2199,1.2166,1.2171,1.2145,1.2135,1.2132,1.2115,1.2107,1.2115,1.2121,1.2127,1.2175,1.2168,1.2199,1.2209,1.2218,1.2224,1.2244,1.2256,1.2125,1.2125,1.2125,0,0,1.2222,1.2205,1.2217,1.2216,1.2208,1.2222,1.2164,1.2183,1.2192,1.2135,1.2161,1.2148,1.2137,1.2175,1.2191,1.2167,1.2259,1.2226,1.2233,1.2233,1.2251,1.2264,1.2275,1.2129,1.2128,1.2127,0,0,1.2312,1.2303,1.2334,1.2326,1.2312,1.229,1.2297,1.2275,1.2264,1.2289,1.2245,1.2257,1.2272,1.2265,1.2263,1.2348,1.2313,1.2351,1.2406,1.2426,1.2437,1.2446,1.2472,1.2483,1.2357,1.2357,1.2357,0,1.2372,1.2392,1.2354,1.2374,1.2374,1.2322,1.2351,1.2346,1.2336,1.2336,1.231,1.2326,1.2315,1.2348,1.2368,1.237,1.2375,1.2352,1.2438,1.2447,1.2455,1.248,1.249,1.2361,1.2361,1.2361,1.236,0,1.2463,1.2477,1.2504,1.2493,1.2496,1.2522,1.2487,1.2494,1.2468,1.2447,1.2472,1.2457,1.2457,1.2463,1.2439,1.2492,1.2477,1.2446,1.2399,1.2472,1.2495,1.2504,1.2368,1.2366,1.2365,1.2364,0,0,1.2603,1.2569,1.2579,1.2572,1.2552,1.2562,1.2584,1.2583,1.2589,1.2584,1.2599,1.2612,1.2581,1.2579,1.2553,1.2571,1.2634,1.2536,1.2535,1.2552,1.2688,1.271,1.2722,1.2613,1.2614,1.2616,1.2688,0,1.2686,1.2721,1.2686,1.2727,1.2738,1.2688,1.2706,1.2695,1.2677,1.2683,1.2662,1.267,1.2631,1.2629,1.2645,1.2624,1.2661,1.2618,1.2624,1.2625,1.2626,1.2735,1.2758,1.2828,1.2697,1.2699,1.27,0,1.2788,1.2784,1.2826,1.28,1.2803,1.2821,1.2815,1.2822,1.2808,1.2793,1.2789,1.2757,1.2775,1.2731,1.2753,1.2725,1.2726,1.2715,1.2717,1.2714,1.2665,1.2732,1.2849,1.2859,1.2714,1.2713,1.2712,0,1.2881,1.2887,1.2912,1.2908,1.2879,1.2892,1.2881,1.2864,1.2865,1.286,1.2859,1.2858,1.2856,1.2855,1.2822,1.2793,1.2847,1.2801,1.2833,1.2834,1.2845,1.2844,1.2961,1.2851,1.2851,1.2851,1.285,0,1.2975,1.3002,1.2952,1.2967,1.2995,1.2955,1.2983,1.2967,1.2952,1.2961,1.2919,1.2929,1.2886,1.2892,1.2866,1.2887,1.2888,1.2874,1.2867,1.2876,1.2877,1.2874,1.2867,1.2853,1.2853,1.2852,1.2852,0,1.3083,1.3052,1.3074,1.3045,1.3038,1.3059,1.3033,1.3045,1.3023,1.3035,1.3036,1.3001,1.3005,1.2972,1.297,1.2953,1.2984,1.297,1.2988,1.2983,1.3015,1.3011,1.3132,1.3144,1.3029,1.303,1.3031,0,1.3144,1.3163,1.3134,1.3137,1.3128,1.3134,1.3133,1.3094,1.3095,1.3078,1.3092,1.3092,1.3089,1.3097,1.3071,1.3068,1.3052,1.3094,1.3051,1.3059,1.3048,1.3046,1.3046,1.3102,1.3104,1.3105,1.3106,0,1.3255,1.3237,1.3238,1.3232,1.3232,1.3226,1.3217,1.3222,1.3179,1.3182,1.3184,1.3182,1.3178,1.3178,1.317,1.3157,1.3124,1.312,1.3126,1.3135,1.3143,1.3136,1.3009,1.3117,1.3116,1.3115,1.3114,1.3114,1.3338,1.3351,1.3332,1.3333,1.3321,1.3313,1.3322,1.33,1.3301,1.3293,1.3271,1.3276,1.3259,1.3244,1.3235,1.3238,1.3217,1.3228,1.323,1.3232,1.3236,1.3145,1.3237,1.3237,1.3236,1.3236,1.3236,0,1.3443,1.3427,1.3429,1.3416,1.3416,1.3385,1.3372,1.3374,1.3379,1.3366,1.3364,1.3365,1.3363,1.3337,1.3332,1.3339,1.3323,1.3339,1.3336,1.3333,1.3257,1.325,1.3351,1.3351,1.3351,1.3351,1.3351,1.3351,1.3497,1.3516,1.3496,1.3507,1.3492,1.3496,1.3491,1.3482,1.3471,1.3474,1.3471,1.3454,1.3434,1.3427,1.3424,1.3416,1.3415,1.3435,1.3421,1.335,1.3339,1.3328,1.3321,1.3436,1.3436,1.3497,1.3497,1.3498]},{"header":{"parameterUnit":"m.s-1","parameterCategory":1,"la1":30.2991,"la2":30.254,"lo1":-89.0895,"lo2":-89.0444,"dy":0.0017,"dx":0.0017,"nx":28,"ny":28,"refTime":"2025-06-19T09:00:00:Z","depth":0,"parameterNumber":3,"parameterNumberName":"V-component_of_WINDS"},"data":[0,0,0,0,0,0,0,0,0,0,0,0,0,0,0,0,0,0,0,0,0,0,0,0,0,0,0,0,0,0,0,0,0,0,0,0,0,0,0,0,0,0,0,0,0,0,0,0,0,0,0,0,0,0,0,0,0,0,3.1342,3.1342,0,3.1338,3.1338,3.1338,3.1234,3.1231,3.1229,3.1226,3.1222,3.1224,3.1226,0,0,0,0,0,0,0,0,0,0,0,0,0,3.126,3.1262,3.1342,3.1342,3.1342,3.1338,3.1338,3.1338,3.1235,3.1231,3.1228,3.1225,3.1221,3.1224,3.1226,0,0,0,0,0,0,0,0,0,0,0,0,0,3.128,3.1262,3.1342,3.129,3.1285,3.1338,3.1338,3.1338,3.1235,3.1231,3.1227,3.1223,3.122,3.1223,3.1227,3.1329,0,0,3.1238,3.1239,0,0,0,0,0,0,0,0,3.1279,3.1283,3.1298,3.1294,3.1289,3.1282,3.1307,3.1335,3.1236,3.1254,3.1226,3.1222,3.1245,3.1246,3.1254,3.1328,3.1328,3.1238,3.124,3.1242,3.1243,0,0,0,0,0,0,0,3.1277,3.1282,3.134,3.1298,3.1293,3.1266,3.1265,3.1312,3.1272,3.1252,3.1245,3.1246,3.1242,3.1251,3.1253,3.1328,3.1238,3.1241,3.1243,3.1245,3.1483,3.1487,0,0,0,0,0,0,3.1283,3.1282,3.134,3.134,3.1274,3.1271,3.1269,3.1288,3.1271,3.1265,3.1249,3.1241,3.1247,3.1249,3.1253,3.1368,3.1242,3.1245,3.1247,3.1479,3.1484,3.1488,0,0,0,0,0,0,3.1282,3.1289,3.1341,3.1309,3.1313,3.1277,3.1299,3.129,3.1299,3.1269,3.1261,3.1266,3.1244,3.1248,3.131,3.1367,3.1247,3.125,3.1474,3.148,3.1486,3.1603,0,0,0,0,0,0,3.128,3.129,3.1328,3.1311,3.1316,3.1399,3.1303,3.1293,3.1306,3.1295,3.1283,3.1277,3.1241,3.1305,3.1313,3.137,3.1253,3.1468,3.1477,3.1484,3.1593,3.1612,3.1628,0,0,0,0,0,3.1277,3.1362,3.1331,3.1339,3.1363,3.1402,3.1405,3.1362,3.1311,3.1349,3.1329,3.1277,3.136,3.1312,3.1321,3.1379,3.1465,3.1474,3.1484,3.1586,3.1608,3.1628,0,0,0,0,0,0,3.1388,3.1359,3.1324,3.1405,3.1407,3.1385,3.1431,3.1388,3.1404,3.1393,3.134,3.1338,3.1408,3.14,3.1348,3.1475,3.1403,3.1415,3.1478,3.1499,3.1516,3.1516,3.1255,0,0,0,0,0,3.1422,3.1456,3.1429,3.1503,3.1506,3.1469,3.1484,3.1451,3.145,3.1451,3.1435,3.1437,3.1462,3.1481,3.1503,3.1592,3.1587,3.1636,3.1654,3.1668,3.1678,3.1723,3.1743,3.1519,3.1519,3.1519,0,0,3.1492,3.148,3.1505,3.1525,3.1522,3.1558,3.147,3.1512,3.1538,3.1457,3.1514,3.1503,3.1501,3.1576,3.1609,3.1572,3.1739,3.168,3.1692,3.1694,3.1734,3.1756,3.1775,3.1526,3.1525,3.1524,0,0,3.1637,3.1633,3.1693,3.1692,3.1689,3.1663,3.1678,3.1662,3.1651,3.1708,3.1647,3.1677,3.1724,3.1724,3.173,3.1875,3.1826,3.1884,3.1973,3.2017,3.2035,3.205,3.2099,3.2118,3.1894,3.1894,3.1895,0,3.1725,3.1777,3.173,3.1775,3.1785,3.1713,3.1773,3.1774,3.1779,3.1787,3.1745,3.18,3.1794,3.1868,3.1903,3.1911,3.1925,3.1884,3.2036,3.2051,3.2065,3.2111,3.213,3.1901,3.19,3.19,3.1899,0,3.1883,3.192,3.1969,3.1974,3.1989,3.2042,3.2002,3.2023,3.1989,3.1968,3.2025,3.2015,3.2033,3.2048,3.2016,3.2117,3.2094,3.2046,3.1971,3.2093,3.2136,3.2154,3.1911,3.1908,3.1906,3.1905,0,0,3.2098,3.2075,3.2094,3.2094,3.2085,3.2112,3.2161,3.2178,3.2196,3.2202,3.224,3.2281,3.2235,3.2243,3.2209,3.2248,3.236,3.2194,3.2193,3.2224,3.2469,3.2504,3.2525,3.2329,3.2333,3.2335,3.2468,0,3.2236,3.2318,3.2276,3.2363,3.2395,3.2327,3.2369,3.2367,3.2349,3.2373,3.2353,3.2381,3.2321,3.2324,3.236,3.2339,3.2409,3.2329,3.2363,3.2365,3.2364,3.2548,3.2585,3.2711,3.2485,3.2488,3.249,0,3.2409,3.242,3.251,3.2492,3.2504,3.2543,3.2554,3.2579,3.2575,3.2559,3.2567,3.2524,3.2569,3.2498,3.2559,3.2506,3.2518,3.251,3.2514,3.2513,3.2433,3.2551,3.2751,3.2769,3.2516,3.2514,3.2512,0,3.2553,3.2591,3.2649,3.2652,3.2634,3.2662,3.2656,3.2648,3.2661,3.2671,3.2678,3.2695,3.2703,3.2716,3.2678,3.263,3.2744,3.2669,3.2731,3.2732,3.2756,3.2755,3.2959,3.2768,3.2767,3.2767,3.2767,0,3.2711,3.2767,3.2713,3.2748,3.2809,3.2761,3.2823,3.281,3.2804,3.2834,3.2778,3.2808,3.2757,3.2782,3.2753,3.2807,3.2812,3.28,3.2791,3.2803,3.2805,3.2809,3.2798,3.2772,3.2771,3.277,3.2769,0,3.2881,3.2848,3.2905,3.2883,3.2879,3.2925,3.2905,3.2937,3.2914,3.2954,3.2961,3.2926,3.2952,3.2916,3.294,3.292,3.2993,3.2973,3.2994,3.2987,3.305,3.3044,3.3262,3.3287,3.3082,3.3084,3.3086,0,3.2983,3.3025,3.3007,3.3023,3.302,3.3047,3.3059,3.3014,3.3028,3.3027,3.3058,3.308,3.3094,3.314,3.3116,3.3133,3.3111,3.3186,3.3113,3.3124,3.3109,3.3107,3.311,3.3201,3.3203,3.3205,3.3207,0,3.3166,3.3147,3.3166,3.3179,3.3195,3.3203,3.3208,3.3224,3.3176,3.3196,3.3221,3.3233,3.3256,3.3278,3.3288,3.3282,3.3236,3.3231,3.3245,3.3257,3.3267,3.326,3.3033,3.3225,3.3223,3.3222,3.3221,3.322,3.3304,3.3337,3.3328,3.3351,3.3349,3.3354,3.3382,3.3363,3.3383,3.3398,3.337,3.3403,3.3397,3.3406,3.3405,3.3429,3.3397,3.3419,3.3424,3.3429,3.3438,3.3265,3.3432,3.3431,3.3431,3.343,3.343,0,3.3482,3.3473,3.3494,3.3501,3.3519,3.3475,3.3477,3.3494,3.3523,3.3522,3.3537,3.3566,3.3587,3.3565,3.3581,3.3605,3.3585,3.3611,3.3607,3.3606,3.3467,3.3452,3.3627,3.3627,3.3627,3.3627,3.3627,3.3627,3.3576,3.3629,3.3609,3.3659,3.365,3.3681,3.3686,3.3689,3.3687,3.3722,3.3739,3.3724,3.3714,3.3729,3.3746,3.3739,3.3747,3.378,3.3766,3.3636,3.3616,3.3598,3.3583,3.3783,3.3783,3.3902,3.3903,3.3904]}]]